Погода в Зарафшане

Узбекистан     41°34′07″N   64°12′09″E
темп.,
°C
ветер,
м/с
пор.,
м/с
влажн.,
%
обл.,
%
осадки,
мм/ч
давл.,
гПа
погр.,
м
27 февраля, сб
сб2723:00−6ю4517100 0.0 1031349
02:00−5ююз4618100 0.0 1029456
05:00−5ю4618100 0.0 1029331
08:00−5ю6919100 0.0 1028377
11:00−1ю9121693 0.0 1028573
14:00+3ююз10112365 0.0 1027984
17:00+3юз8103980 0.0 1026964
20:00+2юз4839100 0.0 1027316
28 февраля, вс
вс2823:000ю343895 0.0 102777
02:000ююв443713 0.0 102545
05:00−1юв44327 0.0 102442
08:000юв46220 0.0 102374
11:00+4ююв67190 0.0 1022364
14:00+7ю442088 0.0 1020653
17:00+8ю332394 0.0 1019818
20:00+6юв3428100 0.0 101941
1 марта, пн
пн123:00+5юв452998 0.0 101941
02:00+5юв453024 0.0 101838
05:00+4юв453312 0.0 101729
08:00+5юв56340 0.0 101847
11:00+10ююв79290 0.0 1018426
14:00+14ю67270 0.0 1016872
17:00+14зюз46250 0.0 10161311
20:00+9ссз23410 0.0 101728
2 марта, вт
вт223:00+7зсз23430 0.0 101824
02:00+6зсз34430 0.0 101924
05:00+5сз34450 0.0 102026
08:00+4ссз234632 0.0 102225
11:00+8ссз333552 0.0 1022307
14:00+10сз433261 0.0 1022543
17:00+9сз563681 0.0 1022540
20:00+5сз575885 0.0 1023290
3 марта, ср
ср323:00+3ссз236889 0.0 102478
02:00+2с347186 0.0 102398
05:00+1св237593 0.0 102392
08:00+1в2373100 0.0 102362
11:00+5юв345157 0.0 1023522
14:00+8ю224486 0.0 1020952
17:00+9ю234143 0.0 10191310
20:00+6вюв69520 0.0 1018222